Home   Weather   Kuala Lumpur   Past weeks
Flag for Malaysia

Past Weather in Kuala Lumpur, Malaysia — Yesterday and Last 2 Weeks

Now
81 °F

Partly cloudy.


Feels Like: 87 °F
Forecast: 91 / 77 °F
Wind: 2 mph from North

Location: Sultan Abdul Aziz Shah-Subang

Current Time: Apr 20, 2019 at 10:36:04 pm

Latest Report: Apr 20, 2019 at 9:00 pm


Visibility: 6 mi

Pressure: 29.74 "Hg

Humidity: 89%

Dew Point: 77 °F

Location of Kuala LumpurLocation

Past Weather in Kuala Lumpur — Graph

°F

Kuala Lumpur Temperature Yesterday

Maximum temperature yesterday: 95 °F (at 1:00 pm)
Minimum temperature yesterday: 77 °F (at 6:00 am)
Average temperature yesterday: 85 °F

High & Low Weather Summary for the Past Weeks

 TemperatureHumidityPressure
High97 °F (Apr 11, 3:00 pm)100% (Apr 6, 2:00 am)29.92 "Hg (Apr 6, 2:00 am)
Low75 °F (Apr 6, 2:00 am)42% (Apr 11, 3:00 pm)29.65 "Hg (Apr 20, 5:00 pm)
Average84 °F80%29.81 "Hg
* Reported Apr 5 9:00 pm — Apr 20 9:00 pm, Kuala Lumpur. Weather by CustomWeather, © 2019

Note: Actual official high and low records may vary slightly from our data, if they occured in-between our weather recording intervals... More about our weather records

Advertising

Kuala Lumpur Weather History for the Previous 24 Hours

Scroll right to see more
 ConditionsComfort  
Time TempWeatherWind HumidityBarometerVisibility
9:00 pm
Sat, Apr 20
81 °FPartly cloudy.2 mph89%29.74 "Hg6 mi
8:00 pm81 °FThunderstorms. Broken clouds.2 mph89%29.74 "Hg6 mi
7:00 pm81 °FThunderstorms. Broken clouds.5 mph89%29.71 "Hg6 mi
6:00 pm82 °FThunderstorms. Broken clouds.9 mph89%29.71 "Hg1 mi
5:00 pm82 °FBroken clouds.3 mph94%29.65 "Hg6 mi
4:00 pm82 °FThunderstorms. Broken clouds.8 mph94%29.68 "Hg6 mi
3:00 pm90 °FBroken clouds.14 mph71%29.68 "HgN/A
2:00 pm93 °FBroken clouds.9 mph63%29.74 "HgN/A
1:00 pm91 °FBroken clouds.8 mph63%29.77 "HgN/A
12:00 pm91 °FBroken clouds.7 mph67%29.80 "HgN/A
11:00 am88 °FBroken clouds.6 mph70%29.80 "HgN/A
10:00 am88 °FBroken clouds.3 mph75%29.80 "HgN/A
9:00 am84 °FBroken clouds.No wind84%29.80 "Hg6 mi
8:00 am81 °FPassing clouds.2 mph94%29.77 "Hg3 mi
7:00 am81 °FPassing clouds.1 mph89%29.74 "Hg4 mi
6:00 am81 °FPassing clouds.No wind89%29.74 "Hg4 mi
5:00 am81 °FPartly cloudy.1 mph89%29.74 "Hg6 mi
4:00 am81 °FPartly cloudy.2 mph89%29.74 "Hg6 mi
3:00 am82 °FPartly cloudy.3 mph84%29.77 "Hg6 mi
2:00 am82 °FPassing clouds.2 mph84%29.80 "Hg6 mi
1:00 am82 °FPassing clouds.No wind84%29.80 "Hg6 mi
12:00 am84 °FPassing clouds.5 mph79%29.80 "Hg6 mi
11:00 pm
Fri, Apr 19
84 °FPassing clouds.5 mph79%29.80 "Hg6 mi
10:00 pm86 °FPassing clouds.5 mph79%29.77 "Hg6 mi
Weather by CustomWeather, © 2019

See weather overview